Reflectivity
-20 -20 -20 -20 -20 -20 -20 -20 -20 -20 -20 -20 -20 -20 -20 -20 -20 -20 -20 3 -20 11 16 27 28 29 36 -7 30 26 30 23 -20 -20 -20 -20 -20 -20 -19 7 22 27 -20
-20 -20 -20 -20 -20 -20 -20 -20 -20 -20 -20 -20 -20 -20 -20 -20 -20 -20 -20 -20 -20 -18 -20 -20 27 27 28 25 28 24 29 -20 -20 -20 -20 -20 -20 -20 -20 -11 -20 -20 -20
-20 -20 -20 -20 -20 -20 -20 -20 -20 -20 -20 -20 -20 -20 -20 -20 -20 -20 -20 -20 -20 -20 -20 -20 -20 28 24 10 26 0 -0 -6 -20 -20 -20 -20 -20 -20 -20 -20 -20 -20 -20
-20 -20 -20 -20 -20 -20 -20 -20 -20 -20 -20 -20 -20 -20 -20 -20 -20 -20 -20 -20 -20 -20 -20 -20 -20 -20 27 -14 26 26 25 3 -20 -20 -20 -20 -20 0 -20 -20 -20 -20 -20
-20 -20 -20 -20 -20 -20 -20 -20 -20 -20 -20 -20 -20 -20 -20 -20 -20 -20 -20 -20 -20 -20 -20 -20 -20 -20 -20 -20 -9 1 -17 22 -20 -20 -20 -20 -20 -15 -20 -20 -20 -20 -19
-20 -20 -20 -20 -20 -20 -20 -20 31 12 -20 -12 -20 -20 -20 -20 -20 9 8 -20 -20 -20 -20 -20 -20 -20 -10 6 -20 -20 -20 -20 -20 -20 -20 -20 -20 -20 -18 -20 -7 -20 4
-20 -20 -20 -20 -20 -20 -20 -20 -6 -20 -20 -20 -20 -20 -12 -20 9 -2 7 -20 -20 -20 -20 -20 -20 -20 -4 -20 -20 4 -20 -20 -20 -20 -20 -20 -20 -20 -10 18 1 6 -19
-20 -20 -20 -20 -20 -20 -20 -20 -20 -20 -20 -20 -20 3 10 -12 12 -17 -6 -20 -20 -20 -20 -20 -20 -20 -20 -20 -20 -20 -20 -19 -18 -20 -20 -20 -20 -20 -20 -20 -19 -7 -20
-20 -20 -20 -20 -20 -20 -20 -20 -20 -20 -20 -20 -20 -6 0 -9 13 9 -11 -20 -20 -20 -20 -20 -20 -17 -20 8 -20 3 -20 -20 -20 -20 -20 -20 -20 -20 -20 -20 -20 -20 3
-20 -20 -20 -20 -20 -20 -20 -20 -20 -20 -20 -20 -20 -20 11 -2 12 -14 -19 -20 -20 -20 -20 -20 8 -12 12 -2 -20 -20 -19 -19 -19 -20 -20 -20 -20 -20 -20 -20 -20 -20 -20
-20 -20 -20 -20 -20 -20 -20 -20 -20 -20 -20 -20 -20 -20 -20 4 -1 -6 -20 -20 -20 -20 -20 -20 4 13 11 14 -7 -9 14 17 -20 -20 -20 -20 -20 -20 -20 -20 -20 -20 -20
-20 -20 -20 -20 -20 -20 -20 -20 -20 -20 -20 -20 -20 -17 -11 -20 -20 -7 4 3 -20 -20 -20 -20 -20 -18 -20 -20 16 11 23 23 -0 -20 -20 -20 -20 -20 -20 -20 -20 -20 -20
-20 -20 -20 -20 -20 -20 -20 -20 -20 -20 -20 -20 -20 -20 -20 -20 -20 -20 1 -18 -0 -20 -20 -7 -11 -20 -20 11 -20 -20 -13 -5 -20 -20 -20 -20 -20 -20 -20 -20 -20 -20 -20
-20 -20 -20 -20 -20 -20 -20 -20 -20 -20 -20 -20 -20 -20 -20 -20 -20 -20 -20 -20 2 3 3 8 7 10 -1 -9 -20 -20 -1 7 -19 -20 -20 -20 -20 -20 -20 -20 -20 -20 -12
-20 -20 -20 -20 -20 -20 -20 -16 0 -8 -18 -20 -20 -20 -20 -20 -19 -13 -19 -20 -17 1 0 10 6 8 0 -7 -20 -20 -5 32 12 -19 -15 -20 -20 -20 -20 -20 -20 -20 -20
8 -5 -18 -20 -20 -20 -20 -19 14 -6 8 10 9 -7 -14 -20 -20 5 6 1 10 9 5 4 20 15 14 12 23 9 -20 29 21 32 22 -3 -20 -20 -20 -20 -20 -20 -20
29 23 6 -6 14 7 -20 -20 -20 0 11 9 1 -19 -5 8 -20 -20 -3 12 11 3 -18 7 14 14 19 14 9 15 8 21 26 9 22 -5 21 17 -20 -20 -20 -20 -20
36 20 -1 0 11 2 22 3 -6 -20 -20 -20 6 0 -20 -20 -20 -20 -20 -20 -20 -20 -20 -13 7 -3 2 20 17 17 -1 6 23 13 6 12 -12 21 23 -20 -20 -20 -20
34 38 38 30 22 18 13 0 -20 -20 -20 -20 -20 -20 -20 -9 -20 -8 -20 -20 -20 -20 -20 -20 -16 -12 4 -11 18 25 22 -7 11 20 8 7 14 18 6 22 5 -2 -20
26 12 27 28 33 13 -5 -20 -20 -20 -20 -20 -17 -20 -20 -18 -20 -20 -20 -20 -20 -20 -20 -20 -18 -5 -3 -6 -5 4 24 22 -5 7 17 3 3 7 23 11 5 4 7
23 19 4 -7 -20 -14 -17 -20 -20 -20 -9 -20 -20 -7 -15 -20 -20 -20 -20 -20 -20 -20 -19 -19 -20 -20 -3 -3 -2 -12 10 22 19 7 14 7 3 7 8 23 11 8 -17
5 -2 5 -14 -9 -8 -20 -20 -20 -20 -20 -20 -20 -14 -5 -20 -20 -20 -20 -20 -20 -20 -4 -5 -2 0 0 -0 -0 -2 -12 1 19 12 11 13 -3 -5 8 11 24 8 36
17 -1 -8 -11 -14 -19 -20 -20 -20 -20 -20 -20 -20 -20 -20 -20 -20 -20 -0 -2 -1 -1 -1 -5 -10 -9 -5 -5 -4 -4 -4 -2 6 24 11 13 16 10 2 12 30 20 25
-16 2 7 -10 -6 -20 -20 -20 -20 -20 -20 -20 -20 -20 -20 -20 -20 -6 -9 -4 -20 -20 -6 -10 -10 -10 -20 -20 -20 -18 -7 -11 -20 -16 22 20 17 21 10 11 26 21 19
-20 -20 -20 -20 -20 -20 -20 -20 -20 -20 -20 -20 -20 -20 -20 -4 -10 -20 -20 -20 -20 -14 -5 -20 -20 -20 -20 -20 -20 -12 -20 -20 -17 -20 -7 23 18 20 18 16 25 24 -8
-20 -20 -20 -20 -20 -20 -20 -20 -20 -20 -20 -20 -20 -20 -13 -20 -20 -20 -20 -20 -20 -20 -20 -20 -20 -20 -20 -20 -20 -20 -20 -20 -20 -20 -20 -19 18 24 18 24 20 8 10
Wind_Speed
11 9 9 8 8 6 6 5 5 4 5 5 5 5 6 5 5 5 6 6 8 8 5 9 8 7 8 7 6 3 2 3 3 2 1 3 4 6 4 4 4 3 3
8 7 9 7 7 7 7 6 5 6 4 5 4 5 5 6 6 6 7 6 8 8 7 8 9 6 9 6 5 5 3 5 4 7 3 3 4 5 5 6 5 4 4
9 9 7 9 8 9 8 6 5 4 4 5 5 5 5 5 6 6 6 7 7 8 8 7 7 6 7 5 6 5 4 4 3 5 4 2 3 4 4 4 4 4 3
9 9 9 9 9 8 5 5 5 4 4 3 3 5 4 5 6 7 7 7 7 7 8 7 7 6 6 7 6 7 6 6 4 6 4 3 3 3 3 3 3 2 3
8 8 9 6 7 6 6 6 5 3 3 3 3 4 6 6 6 6 7 8 8 8 7 8 7 6 8 10 6 7 8 6 6 6 4 3 4 4 4 3 3 3 1
9 9 7 7 7 8 7 7 5 3 1 2 3 5 7 6 11 9 6 5 7 7 6 5 5 3 5 6 10 14 14 11 7 6 4 7 6 5 5 3 3 2 2
6 6 6 7 8 8 7 6 4 3 3 4 6 5 7 9 14 11 10 5 6 7 6 4 2 3 6 7 8 11 10 9 12 8 8 7 7 7 6 5 3 3 2
8 8 8 9 9 8 7 7 6 4 5 5 6 6 7 8 13 13 10 5 5 6 6 5 3 3 4 7 7 7 7 5 6 5 7 8 5 8 7 3 6 4 3
10 10 10 10 10 9 8 7 6 6 6 7 5 6 6 9 14 15 9 8 7 6 5 5 3 4 5 8 8 7 6 3 4 5 6 8 7 10 9 5 4 3 2
10 10 9 8 9 9 7 6 4 6 7 7 8 7 7 8 15 15 9 5 6 6 5 5 4 4 7 7 6 6 5 3 4 6 6 8 6 8 10 4 6 5 2
9 9 8 7 9 8 7 5 6 7 6 7 8 6 7 7 8 11 12 7 4 4 4 3 2 4 7 7 6 4 4 5 8 7 6 6 6 5 4 2 4 3 3
11 10 7 7 7 6 9 6 7 7 7 5 6 5 5 6 9 11 11 8 9 4 4 3 2 7 7 9 6 6 8 8 5 6 5 4 5 5 3 2 3 3 3
12 11 9 7 7 6 7 7 6 5 5 5 4 5 4 5 5 8 7 9 8 4 4 6 6 9 8 5 5 7 6 5 5 4 4 3 2 4 3 3 3 2 2
12 11 9 9 7 6 5 4 5 4 5 6 6 5 4 5 6 7 7 6 6 5 5 4 1 5 6 5 4 5 2 3 6 5 5 4 4 3 4 3 2 2 1
9 9 8 8 8 8 7 5 5 4 5 6 5 4 4 5 5 7 4 4 3 4 6 0 2 2 3 3 3 5 5 3 4 5 5 6 4 5 4 4 2 3 1
7 7 6 7 7 7 6 6 14 12 15 14 11 6 4 4 5 10 12 7 5 3 1 2 1 1 3 3 4 4 5 9 6 5 6 8 6 5 5 3 3 3 2
7 8 7 7 8 7 5 6 6 4 7 8 9 8 6 3 9 12 12 8 12 5 4 6 6 5 1 2 4 5 5 5 3 3 5 4 5 6 8 6 5 3 3
11 12 4 6 8 6 4 5 4 3 3 3 6 9 10 10 9 11 13 8 6 7 5 5 5 6 6 5 2 4 5 3 4 4 4 4 4 5 7 6 6 6 5
11 5 3 4 6 8 5 5 4 4 4 4 3 6 9 8 7 10 11 7 6 7 6 5 5 5 5 5 6 4 4 4 4 4 4 4 4 3 5 6 6 8 6
8 12 9 6 6 5 4 4 5 4 4 5 4 5 6 4 6 6 7 6 5 5 5 6 6 5 5 5 5 5 6 4 5 5 6 5 4 5 4 5 7 6 6
8 6 11 7 6 5 4 3 5 5 5 4 4 4 7 6 6 6 6 5 6 6 5 5 6 6 5 5 5 5 5 6 8 5 5 6 7 6 5 5 5 7 6
8 7 6 6 5 5 5 4 4 5 5 5 4 5 7 6 5 5 5 5 4 4 3 4 4 5 5 6 6 6 6 6 6 7 8 5 7 7 7 7 6 6 7
9 9 8 7 7 7 4 5 5 5 7 5 4 3 5 5 4 5 5 4 5 4 3 3 4 4 5 5 6 6 6 7 6 7 7 7 8 7 8 7 8 7 8
9 9 8 7 6 6 5 5 5 7 6 4 3 4 4 4 4 5 4 5 4 4 4 4 4 6 7 7 7 5 5 4 6 6 9 8 8 9 8 8 9 12 9
9 8 8 7 6 6 6 5 4 3 5 4 4 4 4 4 5 5 5 5 5 5 5 4 4 8 9 12 9 8 6 9 11 10 7 9 9 11 10 9 10 10 10
8 8 6 6 6 5 4 4 4 3 4 4 3 3 4 5 5 5 4 5 5 5 7 6 7 11 12 10 11 11 9 10 12 10 9 7 8 8 9 10 14 10 12
Wind_Direction
195 200 205 209 207 200 208 214 221 239 242 256 257 270 266 270 276 277 284 291 272 272 254 237 220 194 213 217 218 190 119 138 121 126 140 155 126 145 110 125 142 124 141
193 182 200 202 194 200 205 207 205 232 241 246 258 263 273 273 271 272 285 285 279 285 267 234 228 202 227 206 197 165 141 146 129 154 164 145 109 149 115 122 141 149 152
171 191 190 200 192 207 202 199 202 226 242 253 248 253 265 278 289 285 283 287 283 288 286 274 250 200 217 177 183 145 135 136 141 156 148 120 109 135 101 89 123 124 144
172 186 198 198 196 201 183 165 201 210 228 234 275 293 299 291 284 286 291 302 303 291 288 280 255 204 206 185 181 137 127 136 137 143 125 125 127 126 116 136 146 114 137
177 187 204 181 179 153 149 142 133 143 191 270 313 316 303 302 299 315 305 301 306 303 304 300 270 227 191 176 162 141 134 136 145 143 131 132 140 157 174 134 132 140 161
178 187 158 159 148 146 143 123 140 163 280 357 350 346 329 331 335 318 330 323 325 309 314 323 336 350 162 167 144 148 154 150 152 143 155 169 166 159 162 133 123 143 192
128 120 128 130 128 126 127 125 163 142 108 54 27 3 9 18 357 7 356 330 322 329 334 325 358 48 120 149 141 137 149 161 165 148 164 171 175 169 159 137 158 147 180
125 128 132 130 130 135 137 141 133 115 83 66 46 34 56 24 15 18 351 7 10 10 7 357 17 72 115 132 127 111 135 137 155 173 178 166 179 164 181 171 154 128 94
138 143 146 140 138 139 136 136 129 108 95 83 71 62 59 34 15 26 20 25 13 10 24 24 61 89 87 107 124 111 118 98 78 153 130 140 149 153 153 147 156 134 201
151 145 140 138 134 133 134 128 115 107 111 108 94 80 62 56 28 25 22 30 22 0 5 30 72 123 115 116 115 123 109 99 124 131 116 101 137 148 159 191 162 173 171
129 128 130 129 128 127 118 115 118 113 114 116 102 88 78 53 44 30 23 36 4 351 4 18 33 108 108 84 93 96 110 133 110 119 120 116 121 133 155 175 188 178 218
132 125 117 119 122 118 115 111 112 117 110 109 105 91 70 48 42 21 14 12 9 360 1 0 95 139 122 108 91 109 128 118 124 122 127 126 144 145 170 177 170 206 235
135 130 122 120 114 113 117 119 111 109 105 97 83 74 46 28 23 12 4 351 4 359 0 331 150 135 123 110 108 144 165 132 141 144 150 153 220 142 152 167 144 136 152
134 130 127 124 113 95 82 75 94 102 97 94 90 72 40 23 16 360 350 349 351 344 5 355 205 134 146 128 123 158 303 178 157 164 159 144 141 152 178 186 192 161 175
125 122 117 113 107 91 66 60 85 44 90 109 97 83 47 26 356 303 290 329 345 331 324 105 94 120 175 192 163 165 130 254 186 170 168 154 168 178 189 186 188 163 202
128 111 114 113 107 106 101 83 43 63 71 69 59 67 71 50 331 352 356 1 7 12 115 11 24 180 186 184 194 176 178 206 205 221 193 170 173 187 186 180 191 206 184
86 103 107 125 117 121 124 121 121 67 73 81 69 62 54 54 22 5 3 21 30 37 47 26 14 3 322 196 184 198 221 214 182 214 221 232 187 177 170 179 185 222 211
91 59 115 135 117 114 123 124 130 136 122 89 65 46 16 22 30 15 13 39 31 27 16 28 20 6 354 341 230 222 235 204 196 216 218 209 215 189 177 165 197 206 211
103 106 110 85 105 106 124 115 113 109 108 87 47 15 355 9 38 37 37 55 42 15 4 1 5 1 356 348 354 312 240 240 209 217 204 214 193 193 205 166 187 209 195
106 141 136 127 102 112 126 124 112 105 96 90 65 25 358 29 33 30 31 32 34 43 4 349 346 346 350 352 346 340 342 256 225 215 215 206 188 192 220 190 175 182 204
126 128 127 98 114 122 113 119 127 121 107 87 77 49 20 53 31 18 25 22 12 12 8 345 336 332 348 350 345 345 337 325 334 266 209 207 203 204 185 227 184 177 186
118 120 110 110 113 119 131 120 114 104 84 74 56 45 51 52 32 28 22 18 15 351 344 340 335 328 342 345 342 338 335 333 337 337 341 272 214 210 198 190 197 174 188
116 118 118 119 122 115 112 107 105 108 84 65 48 48 54 42 26 21 356 21 354 342 343 2 352 342 346 341 334 329 333 327 336 340 320 311 300 208 200 195 193 196 187
117 121 121 119 120 125 113 103 89 75 88 84 67 51 47 48 14 5 359 359 0 342 343 357 357 342 339 339 331 324 323 352 333 316 321 306 291 283 199 195 195 200 193
114 119 124 122 118 110 107 86 80 98 95 85 58 40 37 34 23 12 1 355 353 333 346 350 348 336 333 327 323 322 323 307 303 293 283 278 287 286 263 204 199 194 189
108 111 108 112 110 110 115 131 141 117 87 58 39 38 46 50 20 356 349 358 341 346 350 346 338 336 327 321 314 314 298 276 289 279 276 261 259 267 277 221 207 197 189